period_start,C,m1,H,J0,J1,J2,J3,J4,J5,JA,JB,JC,JD,JJ,JK,JN,#
2016-01-28 00:02:04,0.11,5.20,0.00,16.67,20.81,24.69,15.01,50.33,1020.52,2057.02,1985.42,2052.44,2291.22,600.14,611.62,32.38,0000 0000 0000 0000 000000
2016-01-28 00:07:05,0.12,5.21,0.00,16.70,20.82,24.68,15.08,50.23,1020.52,2057.00,1984.17,2051.48,2290.10,600.30,611.47,32.43,0000 0000 0000 0000 000000
2016-01-28 00:12:06,0.14,5.22,0.00,16.70,20.84,24.70,15.00,50.26,1020.50,2057.00,1982.80,2050.41,2288.86,600.12,611.33,32.48,0000 0000 0000 0000 000000
2016-01-28 00:17:08,0.12,5.22,0.00,16.70,20.84,24.75,15.11,50.27,1020.48,2057.00,1981.53,2049.42,2287.79,600.04,611.36,32.53,0000 0000 0000 0000 000000
2016-01-28 00:22:09,0.13,5.23,0.00,16.73,20.87,24.75,14.93,50.29,1020.30,2057.00,1980.14,2048.42,2286.56,599.86,611.03,32.58,0000 0000 0000 0000 000000
2016-01-28 00:27:10,0.14,5.24,0.00,16.73,20.87,24.74,14.98,50.25,1020.15,2056.98,1978.78,2047.24,2285.38,600.07,611.05,32.63,0000 0000 0000 0000 000000
2016-01-28 00:32:12,0.11,5.24,0.00,16.71,20.89,24.77,14.95,50.19,1020.16,2056.98,1977.54,2046.66,2284.29,599.95,611.04,32.68,0000 0000 0000 0000 000000
2016-01-28 00:37:13,0.12,5.25,0.00,16.75,20.90,24.79,14.98,50.13,1020.19,2056.98,1976.25,2045.64,2283.16,600.15,611.26,32.73,0000 0000 0000 0000 000000
2016-01-28 00:42:14,0.13,5.26,0.00,16.75,20.92,24.87,15.00,50.20,1020.24,2056.97,1974.84,2044.62,2281.99,600.31,611.20,32.78,0000 0000 0000 0000 000000
2016-01-28 00:47:16,0.13,5.26,0.00,16.75,20.94,24.83,15.01,50.21,1020.13,2056.94,1973.55,2043.63,2280.82,599.98,610.93,32.83,0000 0000 0000 0000 000000
2016-01-28 00:52:17,0.13,5.27,0.00,16.77,20.95,24.84,15.04,50.26,1020.04,2056.91,1972.17,2042.58,2279.66,599.97,610.83,32.88,0000 0000 0000 0000 000000
2016-01-28 00:57:19,0.10,5.28,0.00,16.78,20.97,24.87,14.97,50.30,1020.05,2056.65,1970.81,2041.53,2278.48,599.83,610.73,32.94,0000 0000 0000 0000 000000
2016-01-28 01:02:20,0.12,5.28,0.00,16.79,20.98,24.86,15.07,50.22,1020.05,2056.42,1969.49,2040.46,2277.30,600.00,610.82,32.99,0000 0000 0000 0000 000000
2016-01-28 01:07:21,0.09,5.29,0.00,16.79,21.00,24.88,15.03,50.27,1020.04,2056.21,1968.16,2039.54,2276.13,600.11,611.00,33.04,0000 0000 0000 0000 000000
2016-01-28 01:12:23,0.14,5.29,0.00,16.80,21.02,24.90,14.95,50.34,1019.98,2056.08,1966.69,2038.41,2274.85,599.69,610.51,33.09,0000 0000 0000 0000 000000
2016-01-28 01:17:24,0.14,5.30,0.00,16.83,21.03,24.90,14.90,50.24,1019.75,2056.03,1965.24,2037.29,2273.58,599.70,610.19,33.14,0000 0000 0000 0000 000000
2016-01-28 01:22:25,0.14,5.31,0.00,16.81,21.04,24.88,14.95,50.25,1019.66,2056.02,1963.73,2036.13,2272.36,599.92,610.54,33.19,0000 0000 0000 0000 000000
2016-01-28 01:27:27,0.14,5.31,0.00,16.82,21.06,24.92,15.01,50.31,1019.63,2056.02,1962.32,2035.03,2271.11,600.09,610.73,33.24,0000 0000 0000 0000 000000
2016-01-28 01:32:28,0.16,5.32,0.00,16.83,21.07,24.93,15.04,50.32,1019.56,2056.01,1960.73,2033.87,2269.73,600.15,610.64,33.29,0000 0000 0000 0000 000000
2016-01-28 01:37:29,0.15,5.33,0.00,16.79,21.08,24.99,15.01,50.53,1019.24,2056.00,1959.20,2032.73,2268.46,600.10,610.45,33.34,0000 0000 0000 0000 000000
2016-01-28 01:42:30,0.16,5.34,0.00,16.80,21.09,24.99,15.10,50.64,1019.06,2056.00,1957.63,2031.62,2267.07,600.22,610.52,33.39,0000 0000 0000 0000 000000
2016-01-28 01:47:31,0.14,5.35,0.00,16.82,21.10,24.98,15.00,50.64,1019.06,2056.00,1956.07,2030.39,2265.81,599.82,610.16,33.44,0000 0000 0000 0000 000000
2016-01-28 01:52:32,0.15,5.36,0.00,16.78,21.11,24.98,14.97,50.56,1019.03,2056.00,1954.62,2029.37,2264.57,600.17,610.53,33.49,0000 0000 0000 0000 000000
2016-01-28 01:57:34,0.12,5.36,0.00,16.77,21.12,24.99,15.09,50.63,1018.92,2055.99,1953.26,2028.27,2263.41,600.32,610.64,33.54,0000 0000 0000 0000 000000
2016-01-28 02:02:35,0.14,5.37,0.00,16.78,21.12,24.97,14.96,50.54,1018.63,2055.99,1951.82,2027.19,2262.20,599.76,609.85,33.59,0000 0000 0000 0000 000000
2016-01-28 02:07:36,0.14,5.38,0.00,16.78,21.12,24.95,14.92,50.58,1018.59,2055.99,1950.40,2026.13,2260.99,599.93,609.84,33.64,0000 0000 0000 0000 000000
2016-01-28 02:12:38,0.14,5.38,0.00,16.77,21.13,25.00,15.00,50.58,1018.57,2055.99,1948.94,2025.08,2259.78,600.15,610.16,33.69,0000 0000 0000 0000 000000
2016-01-28 02:17:39,0.14,5.39,0.00,16.79,21.14,25.01,15.05,50.64,1018.57,2055.98,1947.64,2024.09,2258.66,600.17,610.11,33.74,0000 0000 0000 0000 000000
2016-01-28 02:22:40,0.13,5.40,0.00,16.77,21.14,25.01,14.94,50.54,1018.58,2055.98,1946.20,2023.04,2257.44,599.88,609.91,33.80,0000 0000 0000 0000 000000
2016-01-28 02:27:41,0.12,5.40,0.00,16.77,21.15,25.04,14.99,50.57,1018.57,2055.98,1945.05,2022.04,2256.41,599.60,609.68,33.85,0000 0000 0000 0000 000000
2016-01-28 02:32:42,0.14,5.41,0.00,16.75,21.17,24.99,14.90,50.54,1018.57,2055.97,1943.75,2021.05,2255.26,599.87,609.93,33.90,0000 0000 0000 0000 000000
2016-01-28 02:37:43,0.13,5.42,0.00,16.69,21.17,25.03,15.07,50.74,1018.46,2055.98,1942.39,2020.08,2254.08,600.10,610.21,33.95,0000 0000 0000 0000 000000
2016-01-28 02:42:44,0.13,5.43,0.00,16.69,21.17,25.02,14.95,50.73,1018.16,2055.97,1940.99,2019.14,2253.01,600.06,609.96,34.00,0000 0000 0000 0000 000000
2016-01-28 02:47:46,0.13,5.43,0.00,16.67,21.17,25.06,14.97,50.63,1018.11,2055.99,1939.75,2018.18,2251.96,600.08,609.99,34.05,0000 0000 0000 0000 000000
2016-01-28 02:52:47,0.13,5.44,0.00,16.63,21.17,25.04,14.94,50.72,1018.08,2055.98,1938.46,2017.22,2250.85,599.92,609.98,34.10,0000 0000 0000 0000 000000
2016-01-28 02:57:48,0.13,5.45,0.00,16.62,21.17,25.01,15.02,50.75,1018.01,2055.98,1937.12,2016.20,2249.65,600.39,610.40,34.15,0000 0000 0000 0000 000000
2016-01-28 03:02:50,0.13,5.45,0.00,16.58,21.17,25.02,14.95,50.96,1017.77,2055.98,1935.81,2015.22,2248.57,599.96,609.76,34.20,0000 0000 0000 0000 000000
2016-01-28 03:07:51,0.12,5.46,0.00,16.54,21.17,25.05,14.98,50.95,1017.71,2055.98,1934.62,2014.11,2247.51,600.20,610.26,34.25,0000 0000 0000 0000 000000
2016-01-28 03:12:52,0.14,5.47,0.00,16.53,21.16,25.03,14.91,50.78,1017.77,2055.98,1933.06,2013.04,2246.23,600.04,610.18,34.30,0000 0000 0000 0000 000000
2016-01-28 03:17:53,0.14,5.47,0.00,16.52,21.15,25.04,15.02,50.76,1018.00,2055.99,1931.74,2012.05,2245.08,599.93,610.27,34.35,0000 0000 0000 0000 000000
2016-01-28 03:22:55,0.12,5.48,0.00,16.53,21.14,24.96,14.97,50.61,1018.05,2055.98,1930.57,2011.19,2244.10,600.28,610.29,34.40,0000 0000 0000 0000 000000
2016-01-28 03:27:56,0.12,5.49,0.00,16.55,21.14,24.96,14.96,50.60,1018.08,2055.99,1929.48,2010.35,2243.11,599.98,610.01,34.45,0000 0000 0000 0000 000000
2016-01-28 03:32:57,0.11,5.49,0.00,16.53,21.14,24.94,15.02,50.50,1018.09,2055.99,1928.48,2009.51,2242.11,600.28,610.51,34.50,0000 0000 0000 0000 000000
2016-01-28 03:37:59,0.11,5.50,0.00,16.56,21.13,24.91,14.95,50.24,1018.11,2055.99,1927.30,2008.67,2241.16,599.83,610.00,34.55,0000 0000 0000 0000 000000
2016-01-28 03:43:00,0.09,5.50,0.00,16.56,21.12,24.96,15.04,50.39,1018.08,2055.99,1926.26,2007.93,2240.24,599.99,610.02,34.60,0000 0000 0000 0000 000000
2016-01-28 03:48:01,0.11,5.51,0.00,16.54,21.12,24.90,15.01,50.32,1018.08,2055.99,1925.18,2007.07,2239.33,600.25,610.45,34.65,0000 0000 0000 0000 000000
2016-01-28 03:53:03,0.11,5.51,0.00,16.55,21.12,24.90,14.97,50.45,1018.07,2055.99,1924.04,2006.18,2238.64,600.18,610.30,34.70,0000 0000 0000 0000 000000
2016-01-28 03:58:04,0.12,5.52,0.00,16.55,21.12,24.96,15.04,50.42,1017.85,2055.99,1922.92,2005.37,2237.64,600.08,610.28,34.76,0000 0000 0000 0000 000000
2016-01-28 04:03:05,0.11,5.52,0.00,16.58,21.13,24.89,14.98,50.45,1017.70,2055.99,1921.81,2004.57,2236.71,600.09,609.83,34.81,0000 0000 0000 0000 000000
2016-01-28 04:08:06,0.11,5.53,0.00,16.58,21.14,24.97,14.90,50.38,1017.63,2055.99,1920.64,2003.74,2235.72,599.93,609.89,34.86,0000 0000 0000 0000 000000
2016-01-28 04:13:07,0.10,5.54,0.00,16.61,21.14,24.93,14.97,50.38,1017.60,2055.99,1919.64,2002.88,2234.76,599.92,609.56,34.91,0000 0000 0000 0000 000000
2016-01-28 04:18:09,0.14,5.54,0.00,16.64,21.14,24.91,14.96,50.43,1017.59,2055.99,1918.11,2001.86,2233.66,600.09,609.70,34.96,0000 0000 0000 0000 000000
2016-01-28 04:23:11,0.13,5.55,0.00,16.63,21.14,24.94,14.86,50.36,1017.22,2055.99,1916.83,2000.88,2232.53,599.82,609.46,35.01,0000 0000 0000 0000 000000
2016-01-28 04:28:12,0.12,5.56,0.00,16.68,21.15,24.99,14.95,50.45,1017.11,2055.99,1915.70,2000.01,2231.55,600.03,609.38,35.06,0000 0000 0000 0000 000000
2016-01-28 04:33:13,0.12,5.56,0.00,16.69,21.16,24.93,14.95,50.59,1017.05,2055.99,1914.56,1999.11,2230.53,599.93,609.20,35.11,0000 0000 0000 0000 000000
2016-01-28 04:38:14,0.12,5.57,0.00,16.66,21.17,24.95,14.90,50.52,1017.06,2055.99,1913.40,1998.16,2229.50,599.84,609.08,35.16,0000 0000 0000 0000 000000
2016-01-28 04:43:16,0.12,5.58,0.00,16.68,21.17,24.97,14.97,50.56,1016.92,2055.99,1912.20,1997.29,2228.48,600.11,609.38,35.21,0000 0000 0000 0000 000000
2016-01-28 04:48:17,0.14,5.58,0.00,16.71,21.17,25.01,14.89,50.45,1016.72,2055.99,1910.80,1996.38,2227.47,599.88,608.86,35.26,0000 0000 0000 0000 000000
2016-01-28 04:53:18,0.12,5.59,0.00,16.73,21.18,25.03,15.00,50.42,1016.85,2055.99,1909.62,1995.42,2226.33,600.20,609.30,35.31,0000 0000 0000 0000 000000
2016-01-28 04:58:19,0.12,5.59,0.00,16.71,21.19,24.99,15.00,50.43,1016.67,2055.99,1908.47,1994.50,2225.31,600.38,609.25,35.36,0000 0000 0000 0000 000000
2016-01-28 05:03:21,0.10,5.60,0.00,16.75,21.19,24.97,14.96,50.52,1016.85,2055.98,1907.37,1993.69,2224.30,599.92,609.01,35.41,0000 0000 0000 0000 000000
2016-01-28 05:08:22,0.09,5.61,0.00,16.80,21.19,24.99,14.90,50.55,1017.00,2055.98,1906.40,1992.88,2223.49,599.83,608.87,35.46,0000 0000 0000 0000 000000
2016-01-28 05:13:23,0.11,5.61,0.00,16.79,21.19,24.99,14.89,50.44,1017.08,2055.99,1905.24,1992.03,2222.48,599.87,608.92,35.51,0000 0000 0000 0000 000000
2016-01-28 05:18:25,0.12,5.62,0.00,16.76,21.20,24.99,14.83,50.58,1017.02,2055.98,1904.12,1991.15,2221.46,599.75,608.81,35.56,0000 0000 0000 0000 000000
2016-01-28 05:23:26,0.12,5.62,0.00,16.77,21.21,25.05,14.93,50.55,1017.05,2055.98,1903.09,1990.30,2220.48,600.15,609.19,35.61,0000 0000 0000 0000 000000
2016-01-28 05:28:27,0.13,5.63,0.00,16.79,21.22,25.07,14.88,50.41,1016.94,2055.97,1901.76,1989.45,2219.56,600.02,609.03,35.67,0000 0000 0000 0000 000000
2016-01-28 05:33:29,0.12,5.64,0.00,16.80,21.22,25.03,15.00,50.59,1016.80,2055.96,1900.55,1988.57,2218.57,599.75,608.57,35.72,0000 0000 0000 0000 000000
2016-01-28 05:38:30,0.12,5.65,0.00,16.82,21.22,25.04,14.99,50.75,1016.64,2055.98,1899.24,1987.63,2217.52,600.22,608.93,35.77,0000 0000 0000 0000 000000
2016-01-28 05:43:31,0.07,5.65,0.00,16.84,21.22,25.07,14.96,50.42,1016.62,2055.98,1898.45,1986.97,2216.76,600.01,608.65,35.82,0000 0000 0000 0000 000000
2016-01-28 05:48:33,0.12,5.65,0.00,16.84,21.24,25.10,14.96,50.44,1016.62,2055.96,1897.35,1986.10,2215.74,600.04,608.72,35.87,0000 0000 0000 0000 000000
2016-01-28 05:53:34,0.11,5.66,0.00,16.86,21.24,25.04,14.95,50.64,1016.60,2055.94,1896.13,1985.16,2214.68,599.76,608.45,35.92,0000 0000 0000 0000 000000
2016-01-28 05:58:35,0.13,5.67,0.00,16.87,21.24,25.05,14.87,50.56,1016.57,2055.92,1894.92,1984.18,2213.62,599.69,608.35,35.97,0000 0000 0000 0000 000000
2016-01-28 06:03:36,0.12,5.67,0.00,16.88,21.25,25.04,14.84,50.54,1016.59,2055.83,1893.72,1983.38,2212.59,599.99,608.61,36.02,0000 0000 0000 0000 000000
2016-01-28 06:08:38,0.14,5.68,0.00,16.89,21.26,25.08,14.96,50.62,1016.61,2055.84,1892.36,1982.53,2211.47,600.22,608.83,36.07,0000 0000 0000 0000 000000
2016-01-28 06:13:39,0.09,5.69,0.00,16.87,21.27,25.11,14.86,50.69,1016.58,2055.93,1891.43,1981.80,2210.53,599.98,608.69,36.12,0000 0000 0000 0000 000000
2016-01-28 06:18:41,0.08,5.69,0.00,16.92,21.27,25.12,14.96,50.64,1016.57,2055.69,1890.44,1980.86,2209.53,600.23,608.80,36.17,0000 0000 0000 0000 000000
2016-01-28 06:23:42,0.10,5.70,0.00,16.93,21.28,25.14,14.94,50.60,1016.37,2055.56,1889.33,1979.97,2208.52,599.74,608.10,36.22,0000 0000 0000 0000 000000
2016-01-28 06:28:43,0.13,5.70,0.00,16.96,21.29,25.15,14.91,50.58,1016.33,2055.57,1888.05,1979.07,2207.60,599.93,608.14,36.27,0000 0000 0000 0000 000000
2016-01-28 06:33:45,0.09,5.71,0.00,16.94,21.29,25.12,14.98,50.69,1016.26,2055.31,1886.86,1978.14,2206.51,600.24,608.57,36.32,0000 0000 0000 0000 000000
2016-01-28 06:38:46,0.10,5.71,0.00,16.95,21.31,25.19,14.86,50.87,1016.15,2055.16,1885.75,1977.31,2205.59,599.85,607.96,36.37,0000 0000 0000 0000 000000
2016-01-28 06:43:47,0.11,5.72,0.00,16.97,21.32,25.14,14.86,50.81,1016.13,2055.07,1884.77,1976.53,2204.65,600.01,608.12,36.42,0000 0000 0000 0000 000000
2016-01-28 06:48:48,0.09,5.72,0.00,16.97,21.32,25.16,14.91,50.70,1016.13,2055.05,1883.73,1975.80,2203.74,600.05,608.05,36.47,0000 0000 0000 0000 000000
2016-01-28 06:53:50,0.12,5.73,0.00,16.99,21.33,25.15,14.96,50.64,1016.13,2055.04,1882.48,1974.85,2202.69,599.82,607.92,36.53,0000 0000 0000 0000 000000
2016-01-28 06:58:51,0.11,5.74,0.00,16.99,21.34,25.17,14.91,50.77,1015.98,2055.04,1881.22,1973.97,2201.75,599.78,607.83,36.58,0000 0000 0000 0000 000000
2016-01-28 07:03:52,0.12,5.74,0.00,16.98,21.34,25.20,14.97,51.02,1015.68,2055.02,1880.09,1973.05,2200.77,600.01,607.85,36.63,0000 0000 0000 0000 000000
2016-01-28 07:08:53,0.14,5.75,0.00,16.94,21.34,25.17,14.94,51.00,1015.63,2055.03,1878.80,1972.18,2199.76,600.21,608.17,36.68,0000 0000 0000 0000 000000
2016-01-28 07:13:54,0.14,5.76,0.00,16.93,21.34,25.18,14.83,51.03,1015.61,2055.02,1877.60,1971.28,2198.64,599.70,607.74,36.73,0000 0000 0000 0000 000000
2016-01-28 07:18:56,0.13,5.76,0.00,16.91,21.35,25.18,14.91,51.14,1015.63,2055.01,1876.41,1970.06,2197.48,599.99,607.88,36.78,0000 0000 0000 0000 000000
2016-01-28 07:23:57,0.12,5.77,0.00,16.89,21.37,25.19,14.87,51.00,1015.57,2055.00,1875.34,1969.17,2196.40,599.55,607.68,36.83,0000 0000 0000 0000 000000
2016-01-28 07:28:58,0.16,5.78,0.00,16.88,21.37,25.21,14.98,51.17,1015.15,2055.01,1873.90,1968.33,2195.37,600.31,608.05,36.88,0000 0000 0000 0000 000000
2016-01-28 07:33:59,0.13,5.78,0.00,16.87,21.37,25.25,14.88,51.00,1015.33,2055.03,1872.66,1967.03,2193.90,599.74,607.58,36.93,0000 0000 0000 0000 000000
2016-01-28 07:39:00,0.09,5.79,0.00,16.86,21.37,25.19,14.94,50.88,1015.55,2055.01,1871.83,1966.11,2192.94,600.07,608.08,36.98,0000 0000 0000 0000 000000
2016-01-28 07:44:02,0.14,5.80,0.00,16.80,21.37,25.21,14.97,50.91,1015.30,2055.01,1870.70,1965.36,2192.00,600.02,608.02,37.03,0000 0000 0000 0000 000000
2016-01-28 07:49:03,0.09,5.80,0.00,16.78,21.37,25.20,14.94,50.94,1015.48,2055.01,1869.78,1964.65,2191.16,600.05,608.15,37.08,0000 0000 0000 0000 000000
2016-01-28 07:54:04,0.09,5.81,0.00,16.77,21.37,25.21,14.96,50.86,1015.64,2055.01,1868.84,1963.90,2190.20,600.20,608.47,37.13,0000 0000 0000 0000 000000
2016-01-28 07:59:05,0.12,5.81,0.00,16.77,21.37,25.17,14.99,51.06,1015.64,2055.01,1867.82,1963.02,2189.36,600.02,608.35,37.18,0000 0000 0000 0000 000000
2016-01-28 08:04:06,0.14,5.82,0.00,16.77,21.36,25.20,14.92,51.06,1015.64,2055.01,1866.63,1962.12,2188.39,599.84,608.14,37.23,0000 0000 0000 0000 000000
2016-01-28 08:09:07,0.13,5.83,0.00,16.75,21.35,25.18,14.95,50.94,1015.65,2055.02,1865.40,1961.29,2187.34,599.76,608.07,37.28,0000 0000 0000 0000 000000
2016-01-28 08:14:09,0.13,5.83,0.00,16.74,21.34,25.15,14.94,50.95,1015.64,2055.02,1864.19,1960.35,2186.26,599.96,608.28,37.33,0000 0000 0000 0000 000000
2016-01-28 08:19:10,0.13,5.84,0.00,16.74,21.34,25.15,14.97,50.93,1015.47,2055.03,1863.16,1959.47,2185.28,599.56,607.88,37.38,0000 0000 0000 0000 000000
2016-01-28 08:24:11,0.15,5.85,0.00,16.71,21.34,25.12,14.92,51.08,1015.19,2055.02,1861.67,1958.44,2184.18,599.92,608.12,37.43,0000 0000 0000 0000 000000
2016-01-28 08:29:13,0.11,5.85,0.00,16.70,21.33,25.13,14.90,51.04,1015.15,2055.02,1860.65,1957.51,2183.10,599.68,607.78,37.48,0000 0000 0000 0000 000000
2016-01-28 08:34:14,0.13,5.86,0.00,16.70,21.32,25.14,14.94,51.16,1015.13,2055.02,1859.50,1956.58,2181.99,599.83,607.90,37.54,0000 0000 0000 0000 000000
2016-01-28 08:39:15,0.11,5.86,0.00,16.70,21.32,25.13,14.98,51.19,1015.16,2055.02,1858.48,1955.79,2181.02,600.12,608.13,37.59,0000 0000 0000 0000 000000
2016-01-28 08:44:17,0.12,5.87,0.00,16.66,21.32,25.13,14.94,50.88,1015.29,2055.03,1857.40,1954.85,2179.98,600.29,608.43,37.64,0000 0000 0000 0000 000000
2016-01-28 08:49:18,0.11,5.88,0.00,16.65,21.30,25.05,15.00,50.89,1015.47,2055.04,1856.39,1953.97,2178.93,600.00,608.45,37.69,0000 0000 0000 0000 000000
2016-01-28 08:54:19,0.13,5.89,0.00,16.64,21.29,25.06,14.92,50.89,1015.28,2055.05,1855.21,1953.04,2177.80,599.57,607.94,37.74,0000 0000 0000 0000 000000
2016-01-28 08:59:20,0.12,5.89,0.00,16.64,21.29,25.08,14.97,50.91,1015.16,2055.07,1854.07,1952.09,2176.79,600.21,608.38,37.79,0000 0000 0000 0000 000000
2016-01-28 09:04:21,0.14,5.90,0.00,16.62,21.27,25.08,14.91,50.91,1015.18,2055.07,1852.82,1951.11,2175.74,600.10,608.34,37.84,0000 0000 0000 0000 000000
2016-01-28 09:09:22,0.14,5.91,0.00,16.61,21.27,25.03,15.00,50.80,1015.37,2055.10,1851.64,1950.09,2174.78,600.21,608.67,37.89,0000 0000 0000 0000 000000
2016-01-28 09:14:24,0.13,5.91,0.00,16.62,21.25,25.01,14.94,50.68,1015.64,2055.19,1850.49,1949.26,2173.81,600.08,608.69,37.94,0000 0000 0000 0000 000000
2016-01-28 09:19:25,0.12,5.92,0.00,16.63,21.24,25.03,15.00,50.80,1015.41,2055.13,1849.49,1948.37,2172.72,600.14,608.44,37.99,0000 0000 0000 0000 000000
2016-01-28 09:24:26,0.14,5.93,0.00,16.62,21.24,24.98,14.97,50.81,1015.21,2055.18,1848.40,1947.44,2171.75,599.82,608.14,38.04,0000 0000 0000 0000 000000
2016-01-28 09:29:27,0.13,5.93,0.00,16.59,21.23,25.00,15.00,50.73,1015.17,2055.23,1847.23,1946.59,2170.79,600.13,608.48,38.09,0000 0000 0000 0000 000000
2016-01-28 09:34:28,0.11,5.94,0.00,16.55,21.22,24.95,14.91,50.38,1015.16,2055.30,1846.07,1945.77,2169.73,600.08,608.35,38.14,0000 0000 0000 0000 000000
2016-01-28 09:39:29,0.16,5.94,0.00,16.55,21.22,24.96,14.98,50.51,1015.19,2055.44,1844.85,1944.88,2168.76,600.23,608.66,38.19,0000 0000 0000 0000 000000
2016-01-28 09:44:31,0.20,5.96,0.00,16.56,21.20,24.96,14.92,50.53,1015.15,2055.71,1843.38,1943.67,2167.49,600.10,608.54,38.24,0000 0000 0000 0000 000000
2016-01-28 09:49:32,0.15,5.96,0.00,16.58,21.19,24.94,14.97,50.70,1015.12,2055.89,1842.09,1942.66,2166.39,600.17,608.47,38.29,0000 0000 0000 0000 000000
2016-01-28 09:54:34,0.12,5.97,0.00,16.59,21.19,24.96,14.95,50.64,1015.16,2055.82,1840.97,1941.65,2165.24,600.12,608.41,38.34,0000 0000 0000 0000 000000
2016-01-28 09:59:35,0.11,5.98,0.00,16.59,21.19,24.93,14.96,50.58,1015.15,2055.85,1839.83,1940.88,2164.18,599.86,608.19,38.39,0000 0000 0000 0000 000000
2016-01-28 10:04:37,0.13,5.98,0.00,16.60,21.19,24.95,15.01,50.59,1015.05,2055.85,1838.65,1940.03,2163.34,600.21,608.48,38.45,0000 0000 0000 0000 000000
2016-01-28 10:09:38,0.14,5.99,0.00,16.62,21.19,24.92,14.94,50.48,1015.06,2055.96,1837.54,1939.16,2162.36,599.90,608.13,38.50,0000 0000 0000 0000 000000
2016-01-28 10:14:40,0.15,6.00,0.00,16.61,21.18,24.96,14.93,50.58,1015.10,2055.97,1836.07,1938.23,2161.28,600.49,608.76,38.55,0000 0000 0000 0000 000000
2016-01-28 10:19:41,0.14,6.01,0.00,16.64,21.17,24.94,14.94,50.72,1015.13,2055.97,1834.64,1937.14,2160.12,599.91,608.13,38.60,0000 0000 0000 0000 000000
2016-01-28 10:24:42,0.13,6.01,0.00,16.64,21.17,24.90,14.92,50.67,1015.11,2055.97,1833.55,1936.19,2159.04,599.79,607.99,38.65,0000 0000 0000 0000 000000
2016-01-28 10:29:44,0.12,6.02,0.00,16.65,21.17,24.88,14.93,50.68,1015.12,2055.97,1832.53,1935.30,2157.94,599.96,608.04,38.70,0000 0000 0000 0000 000000
2016-01-28 10:34:45,0.12,6.03,0.00,16.65,21.17,24.91,14.92,50.84,1015.06,2055.96,1831.49,1934.28,2156.87,600.20,608.49,38.75,0000 0000 0000 0000 000000
2016-01-28 10:39:46,0.13,6.03,0.00,16.63,21.17,24.95,14.96,50.80,1015.11,2055.98,1830.33,1933.43,2155.88,600.29,608.37,38.80,0000 0000 0000 0000 000000
2016-01-28 10:44:48,0.12,6.04,0.00,16.65,21.17,24.95,14.93,50.51,1015.10,2055.96,1829.31,1932.55,2154.83,600.36,608.53,38.85,0000 0000 0000 0000 000000
2016-01-28 10:49:49,0.12,6.05,0.00,16.65,21.16,24.95,14.98,50.44,1014.90,2055.97,1828.15,1931.69,2153.80,600.33,608.41,38.90,0000 0000 0000 0000 000000
2016-01-28 10:54:50,0.14,6.05,0.00,16.67,21.15,24.97,15.01,50.83,1014.67,2055.97,1826.88,1930.76,2152.74,600.23,608.29,38.95,0000 0000 0000 0000 000000
2016-01-28 10:59:51,0.11,6.06,0.00,16.63,21.15,24.94,14.94,50.77,1014.66,2055.97,1825.65,1929.91,2151.85,599.79,607.83,39.00,0000 0000 0000 0000 000000
2016-01-28 11:04:52,0.11,6.07,0.00,16.63,21.15,24.93,14.87,50.81,1014.68,2055.99,1824.76,1929.07,2150.84,599.68,607.74,39.05,0000 0000 0000 0000 000000
2016-01-28 11:09:53,0.14,6.07,0.00,16.61,21.14,24.92,14.94,50.68,1014.67,2055.99,1823.64,1928.22,2149.80,600.07,608.15,39.10,0000 0000 0000 0000 000000
2016-01-28 11:14:55,0.13,6.08,0.00,16.61,21.14,24.96,14.90,50.74,1014.67,2055.98,1822.54,1927.20,2148.74,599.86,607.78,39.15,0000 0000 0000 0000 000000
2016-01-28 11:19:56,0.12,6.08,0.00,16.63,21.14,24.93,14.98,50.77,1014.68,2055.99,1821.55,1926.31,2147.82,600.26,608.23,39.20,0000 0000 0000 0000 000000
2016-01-28 11:24:57,0.14,6.09,0.00,16.62,21.14,24.94,14.92,50.66,1014.67,2055.99,1820.44,1925.47,2146.71,599.98,607.99,39.25,0000 0000 0000 0000 000000
2016-01-28 11:29:58,0.15,6.10,0.00,16.61,21.14,24.90,14.88,50.55,1014.70,2055.98,1819.05,1924.29,2145.50,599.85,607.88,39.31,0000 0000 0000 0000 000000
2016-01-28 11:34:59,0.14,6.11,0.00,16.63,21.12,24.91,14.90,50.70,1014.68,2055.98,1817.72,1923.31,2144.49,599.95,607.96,39.36,0000 0000 0000 0000 000000
2016-01-28 11:40:01,0.14,6.11,0.00,16.61,21.12,24.91,14.91,50.84,1014.66,2055.99,1816.44,1922.28,2143.38,600.28,608.29,39.41,0000 0000 0000 0000 000000
2016-01-28 11:45:02,0.12,6.12,0.00,16.61,21.12,24.92,14.91,50.71,1014.68,2055.99,1815.55,1921.48,2142.36,600.19,608.18,39.46,0000 0000 0000 0000 000000
2016-01-28 11:50:04,0.11,6.12,0.00,16.60,21.12,24.90,14.97,50.92,1014.47,2055.99,1814.55,1920.68,2141.49,600.04,607.90,39.51,0000 0000 0000 0000 000000
2016-01-28 11:55:05,0.12,6.13,0.00,16.53,21.12,24.93,14.93,51.00,1014.18,2055.99,1813.36,1919.79,2140.45,600.14,608.04,39.56,0000 0000 0000 0000 000000
2016-01-28 12:00:06,0.23,6.14,0.00,16.51,21.11,24.91,14.88,51.27,1013.99,2055.99,1811.50,1918.38,2138.77,599.93,607.74,39.61,0000 0000 0000 0000 000000
2016-01-28 12:05:07,0.11,6.15,0.00,16.49,21.09,24.90,14.98,51.14,1014.14,2055.99,1810.45,1917.26,2137.69,599.95,607.89,39.66,0000 0000 0000 0000 000000
2016-01-28 12:10:09,0.12,6.16,0.00,16.45,21.09,24.87,14.98,50.78,1014.34,2055.99,1809.58,1916.42,2136.77,600.42,608.51,39.71,0000 0000 0000 0000 000000
2016-01-28 12:15:10,0.12,6.16,0.00,16.43,21.08,24.87,15.04,50.92,1014.58,2055.99,1808.49,1915.56,2135.78,600.15,608.47,39.76,0000 0000 0000 0000 000000
2016-01-28 12:20:11,0.13,6.17,0.00,16.44,21.07,24.86,15.03,50.82,1014.55,2056.00,1807.29,1914.63,2134.77,600.53,608.75,39.81,0000 0000 0000 0000 000000
2016-01-28 12:25:12,0.11,6.18,0.00,16.43,21.06,24.87,14.92,50.79,1014.28,2056.01,1806.13,1913.81,2133.76,599.51,607.75,39.86,0000 0000 0000 0000 000000
2016-01-28 12:30:14,0.12,6.18,0.00,16.44,21.04,24.89,14.96,50.78,1014.20,2056.00,1804.96,1912.93,2132.76,599.93,607.97,39.91,0000 0000 0000 0000 000000
2016-01-28 12:35:16,0.13,6.19,0.00,16.41,21.04,24.82,14.85,50.73,1014.18,2056.01,1803.84,1912.07,2131.80,599.53,607.74,39.96,0000 0000 0000 0000 000000
2016-01-28 12:40:17,0.14,6.20,0.00,16.39,21.03,24.81,14.89,50.69,1014.18,2056.01,1802.60,1911.17,2130.82,600.16,608.39,40.01,0000 0000 0000 0000 000000
2016-01-28 12:45:18,0.13,6.20,0.00,16.36,21.02,24.80,14.94,50.73,1014.18,2056.01,1801.49,1910.31,2129.77,600.07,608.33,40.06,0000 0000 0000 0000 000000
2016-01-28 12:50:19,0.13,6.21,0.00,16.37,21.01,24.79,14.93,50.72,1014.15,2056.06,1800.30,1909.37,2128.76,599.73,607.91,40.11,0000 0000 0000 0000 000000
2016-01-28 12:55:21,0.14,6.22,0.00,16.35,20.99,24.81,14.99,50.82,1014.02,2056.10,1799.12,1908.42,2127.73,600.04,608.34,40.16,0000 0000 0000 0000 000000